Wind_Speed
13 15 17 16 16 16 16 16 16 16 14 14 12 12 12 13 14 14 13 12 11 9 8 8 8 8 8 10 9 10 11 11 10 11 12 12 14 14 14 13 11 11 10 10 10 9 8 7 8 8 8 7 7 7 8 9 11 13 14 14 14 13 13 13 13 13 13 12 13 12 11 12 13 14 16 17 18 17 17 13 14 18 19 18 17
17 16 17 17 17 16 16 16 16 16 15 13 12 12 12 12 13 13 13 12 11 9 8 8 8 8 8 9 8 10 10 9 9 10 10 11 11 12 12 12 11 10 9 9 9 9 8 7 8 8 7 7 6 6 7 9 10 11 13 14 14 13 13 13 13 13 12 11 12 11 10 10 11 12 15 16 17 17 15 13 14 18 19 18 18
20 18 18 18 17 17 16 17 16 16 15 13 12 12 12 12 12 12 12 12 11 9 8 7 7 7 8 8 8 10 9 8 8 9 9 9 9 9 10 10 10 9 8 8 8 9 8 6 5 6 6 6 5 5 6 8 9 10 12 14 14 13 13 14 13 13 12 11 10 10 10 9 9 11 13 15 16 15 13 14 16 18 18 18 19
20 18 19 19 17 17 17 17 16 16 14 13 12 12 12 11 12 12 12 12 11 10 9 7 6 7 7 7 8 9 9 7 8 9 8 7 6 7 8 8 8 8 8 7 7 7 8 6 4 5 5 5 4 4 6 7 8 10 11 13 14 13 14 15 14 14 12 10 8 8 8 8 7 9 12 14 15 14 13 15 17 17 18 18 18
19 18 19 19 18 17 17 17 17 16 14 13 12 12 12 11 11 12 12 12 12 10 9 8 6 6 6 7 7 7 8 7 7 7 7 6 6 7 8 8 7 7 7 6 6 6 7 5 2 5 6 5 4 4 4 6 7 9 10 12 14 13 15 16 16 15 14 14 10 9 10 8 5 7 10 12 13 13 14 16 17 17 17 17 17
19 19 19 19 19 17 17 17 17 16 15 13 13 12 12 12 12 12 12 12 12 11 9 8 6 6 5 6 6 7 8 7 6 6 6 6 6 6 6 6 6 6 6 6 6 6 6 3 2 5 5 5 6 6 4 5 6 8 10 12 14 15 17 17 18 18 18 18 15 13 9 11 7 5 8 10 12 13 15 16 16 16 17 17 17
19 20 20 19 19 18 18 17 17 16 15 14 13 13 12 13 13 12 12 12 12 11 9 8 7 6 5 5 6 7 7 6 6 6 6 6 5 5 5 5 5 5 5 5 5 5 5 2 3 3 3 4 5 6 5 5 6 7 10 12 14 16 18 18 20 20 20 18 16 13 2 13 11 7 5 8 12 14 16 16 16 16 16 16 16
19 19 19 19 20 19 18 18 17 16 16 15 14 13 13 13 13 13 13 12 12 11 10 8 8 7 6 6 7 7 7 6 6 6 7 6 5 5 5 4 4 5 6 5 4 4 4 3 3 3 2 3 3 5 5 5 6 7 9 11 14 17 18 20 21 20 21 19 15 11 5 13 12 8 2 6 9 14 16 15 15 15 15 15 15
18 19 19 19 20 19 19 17 17 17 16 15 14 14 14 14 13 13 13 12 12 11 10 10 9 8 7 7 7 7 6 6 6 7 6 5 5 5 6 6 6 5 5 4 4 4 5 5 3 3 2 1 0 2 5 5 6 7 8 10 14 17 19 19 19 20 20 16 11 8 7 11 9 7 5 7 10 14 16 15 14 15 14 13 14
18 18 18 19 19 18 18 17 17 17 17 16 15 15 14 14 14 13 13 12 11 11 11 10 10 9 8 8 7 6 6 6 6 6 5 5 5 5 5 6 6 6 5 4 5 5 5 5 3 2 3 4 3 2 3 5 5 6 8 10 14 17 17 17 19 19 18 12 5 7 8 11 8 8 11 10 10 13 14 13 13 13 13 13 13
17 16 17 19 19 18 18 18 18 18 17 16 15 15 15 15 14 13 13 12 11 11 11 10 10 10 9 8 7 7 7 7 6 5 4 4 4 4 5 6 6 6 6 4 4 5 4 3 2 0 2 3 4 4 2 4 5 6 8 10 13 17 16 16 19 19 17 8 4 9 11 12 10 9 12 9 7 12 13 12 12 13 13 13 13
16 15 16 19 19 19 18 18 18 18 18 17 15 15 15 15 14 13 13 12 11 11 11 10 10 10 9 8 8 7 7 7 6 5 4 3 3 3 4 5 6 5 6 4 4 3 3 3 2 0 1 2 3 4 4 5 6 7 8 10 13 16 16 15 18 19 13 4 4 8 10 10 10 10 10 7 7 12 12 12 12 13 13 13 13
16 15 17 19 19 19 18 18 18 18 18 17 16 15 15 15 14 13 12 12 11 11 11 10 10 9 8 7 7 7 7 7 6 4 3 3 4 3 4 5 5 5 5 4 4 3 3 3 3 2 2 2 3 3 3 5 6 7 8 10 13 16 16 15 18 18 10 2 3 6 6 7 9 10 10 4 8 12 11 12 12 13 13 13 13
15 14 17 20 19 19 18 18 19 18 18 17 16 15 15 15 14 14 12 12 11 11 10 9 9 8 7 6 6 6 6 5 4 4 3 3 3 3 4 4 4 4 4 4 4 4 3 3 4 3 2 1 2 2 2 4 5 7 7 9 14 16 16 15 18 16 7 5 3 5 4 7 8 9 6 1 9 10 10 12 12 13 13 12 12
14 14 17 18 18 19 18 19 19 19 18 17 16 15 14 14 14 14 13 12 11 10 9 9 8 7 7 6 5 5 5 4 4 3 3 3 3 3 5 4 2 3 3 4 4 5 4 3 4 2 1 1 1 1 1 1 4 5 5 9 14 17 16 14 18 15 6 6 5 6 4 8 8 6 2 5 9 10 10 11 11 12 12 12 12
15 15 16 17 18 18 18 19 19 19 18 17 16 15 14 14 14 13 13 12 11 10 9 9 8 7 6 6 6 6 5 4 4 3 3 3 3 3 4 4 2 3 3 3 4 4 3 2 3 3 3 2 1 1 1 1 2 3 4 9 15 16 14 13 16 12 5 4 5 9 5 7 7 4 2 7 9 9 9 10 11 11 12 12 11
16 15 15 17 17 17 18 18 18 18 18 17 16 16 14 14 13 12 12 12 11 9 9 9 7 6 5 5 7 6 5 5 4 3 3 3 3 3 3 3 2 3 3 3 3 2 2 1 2 3 4 3 2 1 1 1 1 2 3 8 15 16 14 13 14 8 4 6 6 10 6 6 5 2 4 6 8 9 8 9 9 10 11 11 11
17 16 15 16 16 16 17 17 18 18 17 16 15 15 15 14 13 12 12 12 11 10 9 9 8 6 5 6 6 6 5 5 5 4 3 3 3 2 2 1 1 2 1 1 1 1 2 1 2 2 2 3 2 0 3 3 2 2 4 9 15 16 15 14 13 6 4 7 7 9 7 7 5 2 3 6 8 8 8 9 9 9 9 10 11
15 16 16 15 15 16 16 16 17 18 17 16 15 15 14 13 12 12 12 12 11 11 10 9 9 8 6 6 5 5 6 5 5 4 4 3 3 2 1 1 1 0 1 1 1 0 1 2 2 2 1 2 2 1 3 4 3 3 5 10 16 17 15 13 11 3 2 8 7 7 7 8 7 5 4 7 9 8 7 8 8 8 8 9 10
15 15 16 15 16 16 16 18 18 18 18 16 15 15 14 13 13 13 13 13 12 12 11 10 9 8 7 6 5 6 6 5 4 2 3 2 2 2 1 1 2 2 2 2 2 2 2 2 3 2 0 1 1 1 2 4 4 5 6 9 15 16 14 13 12 4 2 6 7 7 7 8 9 7 5 8 8 8 8 7 7 7 7 8 9
16 15 16 16 16 16 16 18 18 17 16 15 15 16 15 14 13 13 14 14 14 13 11 10 9 9 9 8 7 6 5 5 5 2 1 1 0 1 0 2 3 3 3 4 4 3 2 3 4 3 0 2 2 1 1 3 4 5 7 9 11 14 12 10 11 6 3 7 7 7 6 7 9 7 6 8 8 8 7 7 7 7 7 8 8
17 15 15 16 16 15 15 16 15 14 14 14 15 15 14 14 14 14 15 15 14 14 12 11 11 11 11 10 9 8 5 5 4 2 1 0 1 1 2 2 2 3 4 4 4 3 2 3 3 3 1 3 3 3 2 1 2 4 7 8 8 10 9 7 9 6 4 9 8 8 8 9 8 7 7 7 8 8 7 7 7 7 7 7 7
15 14 14 14 13 13 13 13 14 13 13 12 13 14 13 14 14 15 15 14 15 14 14 14 12 12 13 12 11 9 7 6 4 2 3 2 2 1 2 3 2 3 4 4 4 3 1 1 2 1 1 2 5 7 5 6 4 2 5 8 7 7 7 7 9 3 6 7 8 10 11 11 8 7 8 8 8 8 7 7 7 7 7 6 6
16 14 13 13 11 12 13 12 13 13 13 13 13 13 13 13 13 14 14 14 15 14 15 15 13 13 14 14 12 10 8 6 4 4 4 2 2 2 1 2 2 2 3 4 4 3 1 1 3 3 3 4 8 7 3 5 5 4 5 9 7 4 4 7 8 3 7 6 8 10 10 9 7 7 8 7 8 8 8 8 8 7 7 6 6
16 16 16 15 13 13 13 13 13 13 12 12 11 11 11 10 11 12 13 15 15 13 15 15 13 13 15 15 13 11 9 6 6 6 4 2 2 2 2 1 2 1 1 3 3 2 2 2 3 3 5 6 8 4 2 1 1 4 4 6 5 4 5 7 6 5 8 7 8 9 7 6 6 6 7 6 7 8 9 9 9 8 8 7 6
17 18 18 17 18 17 15 13 13 13 10 9 9 11 12 10 11 13 13 15 13 10 13 16 14 13 14 15 13 11 9 8 7 7 4 3 3 4 4 3 3 3 1 3 2 1 2 3 3 3 5 7 7 4 4 6 5 4 3 3 4 5 5 7 5 6 9 7 6 6 5 5 6 5 5 6 6 7 8 9 9 9 8 8 7
18 18 17 15 18 18 15 13 13 12 11 10 9 10 12 10 11 11 11 13 12 12 13 15 15 13 13 14 13 12 11 10 8 6 6 6 4 4 4 3 4 4 3 3 2 2 3 1 1 3 4 6 8 9 11 10 9 9 6 4 5 4 5 4 4 5 7 5 3 3 4 4 5 5 4 5 6 7 8 8 9 8 8 8 7
14 14 14 14 16 14 12 12 11 10 12 13 11 11 12 11 10 10 10 10 11 13 14 14 15 14 12 12 12 12 11 10 9 7 7 7 4 2 2 2 4 4 3 4 3 4 3 3 2 2 4 6 7 8 11 10 9 11 8 5 5 6 8 7 6 5 7 5 3 3 3 3 4 4 5 5 6 7 7 8 8 9 9 8 8
12 11 11 13 14 11 12 12 8 8 9 10 9 10 11 11 11 10 11 12 11 12 12 12 13 13 12 12 12 11 11 10 9 8 7 7 5 4 1 1 4 4 3 3 4 5 4 5 4 2 4 6 6 6 8 7 8 13 10 6 5 5 7 8 8 7 7 6 4 4 4 3 3 4 5 6 6 6 6 7 7 8 8 8 8
13 11 9 11 12 11 12 10 9 9 8 7 7 8 7 7 9 9 10 11 11 12 11 11 13 14 13 12 12 11 10 9 8 7 6 5 4 3 1 1 3 3 2 3 5 7 7 7 4 3 4 5 6 5 6 6 7 12 11 8 6 5 5 6 7 7 5 6 6 5 5 5 4 4 4 5 6 5 5 5 6 6 7 7 8
15 13 10 11 12 11 10 9 11 12 10 8 8 6 5 4 5 5 8 9 9 11 10 8 11 12 12 11 12 13 11 9 8 8 7 6 4 2 2 3 3 3 3 4 6 7 7 7 5 4 5 5 7 6 6 6 5 8 7 7 7 6 6 7 6 5 4 7 8 6 5 6 5 5 5 5 5 5 5 5 5 5 5 6 6
15 14 12 12 11 11 11 10 11 12 12 10 8 6 6 5 2 1 4 6 6 11 11 9 9 9 10 9 12 14 14 13 10 10 10 8 6 4 3 4 6 6 5 5 7 8 6 4 3 3 7 9 10 10 9 9 7 6 5 5 7 8 6 7 6 6 4 8 9 7 6 6 6 6 6 6 5 5 5 6 6 5 5 5 6
15 14 14 13 11 13 13 9 8 11 12 9 8 7 7 7 5 3 3 2 4 9 11 10 9 8 8 8 9 10 11 12 11 11 11 8 8 6 5 7 9 8 7 7 9 9 7 4 6 6 9 9 11 13 12 11 8 6 5 4 5 8 7 6 6 6 8 8 8 8 7 6 7 6 6 6 6 5 5 5 5 6 6 6 5
14 14 16 13 12 15 13 9 7 10 9 7 8 6 6 6 6 4 3 1 2 3 5 8 9 7 7 8 8 7 8 10 10 10 9 8 8 7 7 8 8 8 7 8 10 11 9 8 9 8 7 6 8 11 10 10 8 7 8 7 7 8 9 8 7 7 8 10 8 7 9 8 8 7 6 7 7 7 6 6 6 6 6 6 6
14 15 18 15 14 15 12 10 10 9 7 7 7 4 6 8 5 5 3 2 2 2 1 4 6 6 6 7 7 7 6 7 8 8 7 8 8 6 7 7 6 7 6 6 10 13 12 10 11 9 8 7 7 8 9 10 10 8 8 8 9 8 8 9 10 9 7 9 10 9 8 9 10 8 7 7 8 8 7 7 7 7 7 7 7
15 17 19 16 16 15 13 13 12 10 9 8 6 5 6 6 4 3 2 4 3 3 3 4 4 2 3 4 5 5 5 5 6 7 7 8 8 7 8 7 8 9 7 5 11 14 13 11 11 12 11 9 8 8 9 9 9 9 8 7 6 6 6 8 10 12 10 9 10 10 10 10 10 9 9 9 9 8 8 8 8 8 8 8 7
18 19 19 16 17 16 13 12 12 11 10 8 8 7 6 6 5 5 7 6 6 7 6 4 2 3 2 2 2 2 5 5 5 5 6 8 9 8 7 7 9 9 7 7 12 13 13 12 12 13 11 10 9 7 6 6 6 7 8 7 6 5 5 6 7 10 11 12 11 10 10 9 9 9 11 13 12 10 9 9 9 9 10 10 9
19 19 17 16 17 16 13 12 11 11 10 10 10 8 8 8 5 6 7 6 5 6 6 1 1 3 5 3 2 3 4 3 3 4 5 6 8 7 6 6 7 7 6 8 10 12 12 12 14 15 12 10 9 7 5 5 6 6 7 8 8 7 7 6 6 7 9 12 12 11 10 10 10 10 11 13 13 12 11 11 11 11 11 11 9
19 19 17 16 16 15 13 12 11 11 10 10 10 10 9 8 7 8 9 7 6 7 5 2 2 3 3 3 2 2 3 2 2 4 4 3 4 3 4 4 4 4 5 7 9 11 12 13 16 17 15 12 10 7 5 5 6 7 8 8 9 9 9 9 8 8 9 10 12 13 12 12 11 10 12 13 12 12 14 12 12 12 12 11 10
19 18 17 15 16 14 13 12 11 10 10 10 11 11 9 9 8 7 7 6 4 5 6 4 4 3 4 5 3 2 3 3 2 1 2 2 3 2 1 1 1 2 4 6 8 11 14 15 17 17 16 14 11 8 6 7 8 9 10 9 9 10 11 12 11 11 10 10 11 13 15 15 14 11 11 12 12 13 15 14 13 14 13 12 12
20 18 18 16 15 14 12 11 11 9 10 12 11 9 6 6 6 4 6 5 2 2 6 6 5 3 3 4 3 3 3 3 4 2 2 1 2 2 1 1 2 1 2 4 7 11 14 16 17 17 16 15 13 10 8 10 10 10 12 12 11 11 11 11 12 13 13 11 11 13 15 15 15 14 13 13 12 12 13 15 15 15 14 13 12
21 20 20 19 17 15 13 11 11 10 11 11 10 9 5 5 6 5 5 5 4 5 5 2 2 3 3 3 4 6 6 5 3 5 5 2 1 2 2 2 3 2 1 4 6 9 13 15 17 17 16 15 14 13 12 12 11 10 12 13 12 12 12 12 13 14 14 14 12 11 12 14 14 15 15 15 15 14 14 13 14 15 15 15 14
23 23 22 21 19 17 15 12 11 11 12 11 12 12 9 8 8 8 7 6 8 9 3 5 6 6 5 4 5 7 7 8 7 5 7 5 3 2 2 3 3 3 3 4 5 5 10 13 15 16 16 16 15 14 14 13 11 10 11 12 10 9 10 10 10 9 10 12 13 11 9 10 10 11 12 13 14 15 17 16 14 14 15 15 16
25 25 25 24 22 20 17 14 13 12 12 13 13 12 11 11 10 10 10 7 6 6 1 3 6 6 6 6 6 6 8 9 8 6 6 8 6 5 4 3 4 4 5 5 5 3 5 8 11 13 14 14 13 14 14 13 12 11 10 9 8 6 6 5 3 3 4 6 9 10 9 8 7 8 9 11 13 15 16 18 18 18 18 17 17
27 27 28 27 26 24 19 16 16 14 13 13 13 11 11 10 8 9 10 6 5 5 3 5 6 7 6 7 8 7 8 10 10 7 7 8 9 8 6 5 6 6 5 6 7 5 2 3 5 8 9 10 11 13 13 13 13 13 10 8 6 5 6 4 2 2 3 4 5 6 6 6 6 7 8 9 12 15 15 16 18 19 20 19 18
29 29 29 29 28 26 22 21 20 17 15 14 13 12 11 9 8 10 10 9 10 8 6 7 6 5 5 7 8 8 9 10 10 9 9 9 9 9 8 6 7 8 7 8 8 6 4 2 1 2 4 6 8 10 11 10 11 13 12 10 7 5 5 4 3 4 4 6 6 6 7 7 6 7 7 7 9 12 14 15 16 17 19 20 19
31 31 30 30 29 28 26 24 22 19 17 15 14 14 12 11 11 13 12 13 13 10 9 8 6 4 5 7 8 9 10 10 10 8 9 10 10 10 10 8 7 8 10 11 11 10 8 8 7 5 4 3 4 7 6 6 7 8 11 12 11 9 7 6 7 8 7 7 8 8 9 9 9 8 7 7 8 9 11 13 14 15 16 17 17
30 31 34 33 31 30 28 26 23 21 18 16 16 15 13 14 15 15 14 13 12 12 10 9 6 5 7 8 9 9 10 9 9 9 8 9 11 13 14 12 10 8 8 9 10 11 11 10 9 7 6 6 5 5 5 4 3 2 2 6 6 6 7 9 10 10 9 9 9 9 10 10 11 10 9 8 8 8 8 9 12 13 12 11 12
30 33 37 36 33 32 29 27 25 22 20 18 17 16 15 16 17 17 15 13 12 11 10 8 7 7 9 8 7 7 8 8 9 10 10 10 11 13 14 14 12 8 7 8 7 8 9 10 10 10 8 6 6 9 10 8 8 9 7 4 3 2 2 3 5 6 6 6 6 7 9 10 10 10 9 9 10 10 8 8 9 10 10 10 9
31 33 35 35 34 34 31 29 27 24 22 20 19 18 16 17 18 19 16 14 12 11 11 9 8 9 9 8 6 7 8 8 9 10 10 11 11 12 13 13 12 10 9 9 8 8 8 8 8 9 9 8 6 6 7 6 6 8 7 6 5 4 5 5 3 3 3 4 5 5 6 8 10 11 11 12 13 13 10 8 9 8 8 8 8
31 32 33 32 33 34 34 31 28 26 24 22 20 18 18 18 19 21 18 14 13 14 13 10 10 10 9 7 6 6 7 8 9 9 10 10 10 11 12 12 12 12 12 12 11 11 11 10 9 8 7 7 6 5 4 4 4 5 6 6 7 6 4 4 2 2 1 2 5 6 7 7 9 10 11 13 15 15 13 10 9 9 7 6 6
Wind_Direction
155 160 154 153 156 153 149 141 135 128 125 123 120 124 127 135 144 151 158 165 165 168 155 139 136 126 118 118 120 123 119 108 105 108 108 109 109 109 108 107 103 98 94 88 83 78 75 86 94 89 83 85 88 97 119 135 145 151 149 143 140 139 134 127 126 123 116 109 105 99 89 83 78 77 78 77 75 73 73 67 60 66 67 67 68
153 157 153 151 152 150 147 140 136 130 127 124 123 125 126 135 143 148 156 166 170 172 159 148 142 131 125 122 121 127 124 110 109 111 110 111 110 111 113 112 107 99 93 87 83 78 76 81 86 84 78 77 88 100 117 135 143 149 146 142 142 140 133 126 122 117 111 102 97 90 78 75 75 73 77 81 81 79 79 74 66 67 67 68 71
153 154 150 149 151 149 145 141 137 133 129 126 124 124 123 129 139 147 157 167 173 173 165 159 148 138 131 125 125 132 131 119 117 117 116 114 113 115 115 115 112 105 99 94 87 85 83 78 70 74 73 69 82 101 117 136 145 151 148 146 144 140 129 120 114 108 104 97 96 90 67 55 63 71 77 80 82 82 80 74 70 69 68 69 72
151 149 146 147 150 148 144 142 139 135 130 126 124 122 122 125 134 145 159 170 175 175 173 169 159 148 137 132 133 139 138 128 122 124 125 120 123 120 119 120 116 113 108 102 94 91 91 85 57 64 71 69 79 97 114 130 148 153 151 150 142 131 122 116 107 100 94 87 90 81 47 30 53 70 77 82 83 85 83 77 72 69 67 68 73
146 144 145 146 148 148 144 144 140 135 129 126 124 123 122 123 131 143 159 170 175 179 177 175 170 160 146 140 141 145 142 132 128 130 134 135 138 130 127 128 122 119 115 110 103 96 97 97 49 61 69 70 89 98 117 125 141 152 153 150 136 122 118 113 101 93 82 70 62 48 19 360 35 72 80 84 87 88 84 77 72 72 71 70 73
141 143 144 147 148 148 145 145 140 134 130 127 127 124 122 123 129 139 152 163 171 177 176 176 174 170 157 149 150 148 142 135 134 135 140 142 143 138 133 134 132 128 123 122 119 112 107 103 46 64 66 73 96 103 127 133 138 149 151 144 130 123 119 111 99 89 79 73 61 53 11 323 341 47 80 85 86 84 80 78 74 73 73 74 75
139 143 145 149 149 148 147 145 139 135 132 130 129 123 121 121 122 127 139 152 162 169 169 176 176 175 167 153 149 144 142 138 134 133 135 138 143 142 136 138 144 144 140 141 146 136 123 108 73 72 66 84 110 116 127 135 147 153 145 139 130 126 119 109 101 91 85 80 70 76 327 298 317 343 52 83 82 79 76 75 74 72 71 72 76
140 144 146 150 149 149 147 145 140 137 135 133 131 124 121 120 118 119 125 137 148 157 161 168 171 173 166 152 145 143 143 135 130 129 130 135 143 139 132 130 136 148 154 155 159 152 141 125 101 106 103 115 136 135 136 135 157 162 147 141 136 129 118 110 103 96 88 79 78 99 232 284 301 304 29 81 72 76 76 75 76 76 73 70 75
140 144 146 151 149 149 147 147 143 139 138 137 133 126 123 122 120 119 120 127 136 145 151 159 162 163 156 148 144 144 140 132 130 130 132 138 142 134 128 125 126 134 145 149 136 138 143 133 142 179 202 207 139 125 141 143 160 168 158 147 141 132 121 115 105 97 88 81 97 130 240 271 282 306 7 34 53 72 75 76 79 78 76 73 75
137 144 148 151 149 151 150 150 146 142 142 139 135 128 126 127 125 124 123 125 131 138 145 151 152 150 147 145 143 140 136 134 133 130 133 136 138 129 121 117 116 119 121 121 124 136 147 149 184 217 249 270 302 308 161 162 166 168 167 153 146 137 125 118 106 96 88 87 151 188 244 267 282 327 352 6 51 75 76 77 80 82 81 78 78
136 144 150 153 152 153 153 153 148 145 144 140 136 131 129 130 130 130 128 129 131 136 142 145 144 142 140 141 140 138 139 139 139 134 136 136 135 123 114 110 106 108 106 101 119 139 156 175 217 303 277 275 289 293 251 194 181 172 173 156 148 144 128 118 107 94 89 92 225 219 233 255 273 314 348 3 70 83 83 84 85 88 85 80 78
137 144 152 155 155 155 156 154 149 148 146 141 137 134 132 132 133 132 131 132 134 137 140 140 138 137 137 141 142 141 141 144 148 147 146 144 139 123 113 109 104 104 106 102 107 130 157 188 207 172 256 276 290 293 275 223 195 183 177 157 149 148 132 118 108 93 92 105 261 236 237 252 266 294 333 355 82 88 91 92 90 91 87 83 79
141 147 154 157 156 157 157 154 152 151 147 143 139 137 134 133 134 132 134 136 138 140 138 137 135 135 138 142 147 144 144 149 154 157 158 156 151 143 128 112 105 106 108 103 94 105 133 175 179 188 220 293 305 295 266 239 215 196 181 157 152 152 137 124 111 95 98 135 282 257 255 274 279 293 309 335 89 91 93 94 91 92 91 87 81
147 148 153 158 158 158 157 156 155 153 149 146 143 140 137 136 136 135 137 141 141 141 137 138 138 141 146 144 145 143 147 154 161 164 161 161 158 152 139 118 110 107 98 92 85 92 102 138 145 176 221 287 308 299 265 247 235 213 185 160 159 155 140 129 111 95 112 158 245 255 262 283 289 305 309 109 104 94 94 94 92 93 92 90 82
148 149 153 158 159 159 158 159 158 155 153 149 147 143 142 141 140 140 142 145 145 143 142 143 144 147 150 142 137 140 150 159 165 165 151 149 150 156 147 133 119 102 92 83 87 110 116 133 127 118 165 145 307 319 307 240 238 227 190 163 163 154 140 131 113 103 137 163 240 261 279 289 298 314 303 129 111 99 98 95 94 94 94 93 86
146 149 153 158 160 159 159 161 161 158 157 155 152 148 148 146 144 146 148 151 151 149 147 146 148 150 150 141 137 142 148 155 153 138 131 134 138 160 156 152 140 106 103 82 86 125 132 143 139 101 93 78 24 317 297 150 208 217 187 165 162 153 141 132 115 115 141 133 257 265 276 290 311 322 165 130 112 105 103 100 99 98 96 97 92
145 150 152 157 160 159 161 163 164 161 162 161 158 155 154 153 151 154 154 156 157 156 155 152 152 151 152 145 142 145 146 150 140 121 119 126 139 162 167 164 150 118 118 94 87 134 138 133 151 114 85 46 12 271 201 151 159 169 157 159 160 151 137 124 111 111 134 134 246 266 272 285 321 12 147 136 118 113 108 107 106 104 102 100 98
143 151 149 151 157 161 166 166 165 165 167 165 163 164 161 161 161 163 163 162 163 163 162 158 158 165 166 157 153 149 149 150 138 127 122 119 132 162 178 165 154 128 127 90 69 138 162 154 149 138 78 36 11 272 175 158 120 118 128 148 156 149 135 121 108 101 151 168 231 268 277 281 304 349 166 149 128 122 119 115 113 111 107 103 101
139 149 149 150 157 164 172 169 168 168 169 169 169 172 170 171 170 172 172 171 174 171 171 169 170 178 177 171 167 160 159 160 151 141 129 120 130 157 167 177 246 280 309 317 353 271 201 194 165 155 71 35 26 53 179 164 124 107 112 144 156 150 140 120 103 77 197 187 220 261 274 277 280 290 228 164 139 135 130 123 123 120 112 106 103
138 147 151 154 160 167 174 171 172 171 172 173 174 177 177 180 179 180 181 180 182 179 181 183 183 186 184 185 183 173 169 168 163 144 124 111 124 157 168 209 266 290 292 294 307 288 249 228 207 202 165 85 73 68 188 176 149 124 115 147 157 154 149 126 114 101 259 217 241 260 266 278 276 277 228 174 152 149 142 136 134 129 121 111 106
142 148 151 155 162 168 171 171 174 172 175 175 178 182 180 184 186 187 189 188 187 188 195 193 193 199 193 195 198 189 178 176 170 144 124 43 303 185 227 277 284 282 277 283 293 295 270 242 242 259 198 131 133 109 175 187 164 133 125 144 154 163 164 137 128 120 289 270 284 279 278 289 275 265 222 182 162 160 151 149 145 138 131 118 113
146 153 154 156 163 166 164 168 173 169 173 176 182 188 183 185 190 194 196 196 191 194 203 197 203 210 201 204 209 203 198 198 193 173 166 197 263 265 343 320 300 278 273 287 291 299 281 244 258 282 211 138 137 133 104 87 157 134 129 134 146 166 165 136 126 124 261 275 304 302 302 301 278 254 224 189 172 171 162 161 156 148 140 127 122
148 152 151 154 159 163 161 166 171 169 173 177 184 189 188 190 193 198 200 203 199 201 207 202 212 215 206 212 215 214 211 210 229 227 174 166 221 237 332 330 319 279 281 298 290 288 291 243 244 232 175 132 131 140 102 55 38 59 126 128 133 157 158 132 122 145 249 265 292 300 303 300 286 257 228 196 181 180 173 171 164 155 147 136 129
154 152 150 151 153 162 161 164 173 177 178 177 183 186 189 194 196 202 204 206 207 211 212 208 219 218 211 216 221 224 218 219 246 226 188 190 222 223 292 326 311 281 295 304 294 289 292 197 212 173 153 129 118 126 88 46 33 30 122 117 107 150 161 129 120 191 245 254 271 291 301 295 297 274 247 211 187 184 182 179 174 165 157 152 146
160 158 160 157 156 167 160 158 171 177 181 181 187 189 189 197 202 209 209 210 214 219 219 217 223 220 216 218 220 223 219 231 242 221 212 210 182 185 197 187 219 233 303 281 274 279 235 157 157 161 151 135 113 91 338 291 44 49 115 115 117 179 166 142 138 205 235 249 264 288 304 306 319 299 271 231 197 191 190 186 184 177 170 166 160
157 158 163 161 158 164 158 156 166 168 179 189 192 192 190 196 205 209 211 212 209 212 222 224 225 220 218 218 220 222 218 224 225 215 208 183 174 183 187 179 191 185 161 254 243 115 154 134 131 151 142 142 142 167 204 195 181 139 142 161 181 189 138 146 176 212 230 240 253 284 311 326 336 321 285 237 210 204 197 193 192 190 186 178 172
158 158 157 155 152 155 152 154 162 167 176 179 185 196 195 196 203 205 209 212 202 198 211 217 220 219 217 220 220 218 213 210 202 199 188 172 181 194 197 203 199 187 161 210 218 111 122 144 200 156 150 166 168 182 188 187 191 174 166 189 194 174 125 148 203 229 246 249 252 284 311 322 331 329 297 248 222 213 206 204 201 199 201 194 188
159 156 150 143 142 146 150 152 152 161 166 166 176 188 194 198 203 203 201 210 209 202 201 205 213 214 213 219 216 208 203 194 181 186 189 177 166 160 216 242 203 185 171 200 196 126 137 223 244 174 184 192 181 186 185 186 197 185 174 185 205 183 162 172 186 214 250 254 267 284 293 301 316 319 305 277 240 223 215 210 209 208 209 209 204
158 152 141 137 143 147 152 153 141 145 152 156 163 166 174 181 190 205 203 205 213 206 196 201 213 210 203 209 209 202 193 184 186 192 190 183 157 134 157 185 180 185 198 208 171 139 160 222 245 216 208 202 197 191 177 185 198 188 178 176 212 204 177 186 184 195 243 258 265 263 272 286 297 301 298 293 270 242 225 211 212 213 211 212 211
160 145 127 135 148 149 149 145 135 138 140 146 139 135 152 164 175 197 202 199 204 203 199 199 207 209 202 203 207 209 201 184 191 204 200 195 158 139 196 198 188 208 235 206 172 167 175 200 219 217 221 206 199 202 187 193 200 192 184 175 197 210 197 208 193 185 224 256 268 263 265 276 283 290 290 290 288 277 257 227 215 212 212 211 208
157 143 135 148 151 144 139 136 147 146 134 145 145 127 130 154 175 187 202 203 201 206 218 214 202 205 203 206 212 211 212 203 200 206 204 204 178 162 231 239 239 259 273 235 206 194 187 199 196 185 220 210 189 201 206 199 208 216 200 176 190 211 222 229 207 180 204 243 263 285 281 272 269 280 289 285 286 292 292 277 251 229 219 214 210
148 144 150 157 148 138 141 151 170 156 130 131 144 139 129 139 150 146 216 202 185 190 203 214 202 204 204 211 218 205 205 212 212 209 207 214 215 210 213 235 248 257 269 259 236 217 208 205 159 187 235 221 189 184 196 191 193 225 220 186 193 197 222 254 233 184 195 244 259 278 280 281 277 277 288 285 281 285 293 297 287 269 247 232 223
145 153 156 149 143 144 155 169 174 158 147 136 130 130 131 136 136 150 221 179 155 171 173 182 189 210 212 209 218 206 207 211 204 203 207 218 219 213 218 231 241 247 255 254 239 224 215 192 159 201 239 232 203 190 194 190 180 199 204 196 205 198 201 237 252 210 195 223 257 275 273 278 283 285 289 285 284 282 282 290 291 287 277 266 255
151 160 153 143 153 159 167 171 144 148 162 150 136 137 138 127 118 150 228 235 161 158 158 165 170 192 205 206 210 196 203 206 198 201 205 213 215 216 227 233 237 239 249 252 235 212 197 194 182 198 229 228 206 190 187 188 183 192 193 189 196 207 200 198 232 240 215 205 213 256 277 278 275 279 287 286 285 282 281 286 289 291 290 286 281
159 163 153 148 163 164 158 143 126 133 132 122 131 126 128 127 133 174 239 265 163 114 90 136 149 181 200 210 208 192 189 189 193 196 190 199 207 217 228 229 232 239 257 252 221 200 190 195 183 181 209 211 191 179 176 187 197 201 203 206 203 207 206 195 204 217 231 229 211 215 248 266 269 270 278 281 278 278 281 287 291 294 294 294 291
167 163 154 154 159 151 139 127 119 118 109 105 105 86 109 128 147 158 30 24 59 38 37 82 105 151 210 205 189 192 204 193 195 190 178 193 206 217 225 230 241 249 262 230 201 196 192 193 182 179 200 203 186 184 185 194 209 210 212 221 218 212 211 207 204 201 208 228 231 222 221 239 260 270 275 274 271 274 278 284 289 291 293 295 292
173 161 154 158 155 144 136 128 121 116 111 110 105 94 89 85 83 83 74 74 61 37 40 50 71 78 85 171 151 174 209 208 208 198 191 206 214 217 226 246 250 242 242 213 199 202 197 192 188 187 198 196 183 190 195 202 216 221 226 231 231 230 229 222 213 210 208 212 224 230 233 244 253 264 272 270 269 269 270 278 286 289 290 290 288
170 161 157 157 156 149 143 136 130 125 118 115 112 106 95 86 84 82 93 102 86 84 88 30 333 79 92 109 118 146 173 189 197 209 216 219 220 223 233 249 246 229 219 211 207 212 209 197 191 190 193 189 184 194 206 223 234 230 232 238 240 239 239 233 218 219 220 218 216 214 232 248 249 262 264 259 267 271 266 269 277 283 285 284 282
167 164 161 157 161 156 148 145 137 131 126 119 108 98 89 84 79 74 80 86 86 105 108 24 13 48 71 87 92 123 127 121 157 208 219 209 222 234 232 237 245 232 213 215 217 220 214 202 195 192 192 190 187 196 206 224 240 244 244 242 242 240 240 239 230 224 225 228 222 211 216 221 224 248 254 251 260 264 263 265 271 279 282 281 278
171 169 164 165 168 160 157 154 141 136 133 116 90 80 77 74 80 81 90 108 99 97 105 107 114 91 74 88 95 116 121 101 100 230 221 190 207 213 213 210 239 235 213 217 221 220 212 203 201 196 193 195 193 201 230 249 252 260 264 254 243 243 246 246 239 234 236 238 234 221 213 211 215 221 229 243 252 254 261 267 271 276 280 281 277
174 174 170 175 177 167 170 163 148 145 129 110 90 89 94 88 100 96 92 102 46 74 132 148 170 156 108 115 107 82 93 117 136 132 59 337 227 185 188 143 161 194 203 206 210 216 213 204 206 206 201 202 207 219 242 254 254 258 263 258 249 248 254 259 253 247 244 241 240 228 219 222 228 221 213 220 230 238 254 267 272 275 277 282 283
177 178 176 183 186 178 184 177 159 150 125 117 120 128 136 112 110 108 100 102 93 120 139 98 68 90 92 105 93 77 61 57 95 122 108 73 337 166 159 126 143 150 146 170 181 208 214 208 210 214 214 215 223 236 243 244 242 246 254 253 252 255 260 266 265 261 252 239 233 231 231 237 239 235 229 225 225 228 231 250 271 276 278 283 286
181 180 181 188 191 189 192 184 170 156 139 143 148 147 158 151 141 143 145 144 137 142 132 50 62 72 73 78 96 105 88 60 53 87 119 108 56 51 113 126 143 137 123 139 145 188 214 219 220 220 224 227 229 236 241 241 236 233 241 245 253 264 270 272 269 268 260 243 235 236 245 247 241 246 252 246 243 239 227 227 241 253 259 263 268
188 187 187 190 190 194 197 185 177 167 154 158 158 156 164 163 164 167 170 183 177 171 158 58 74 71 71 75 86 107 113 108 100 97 115 120 108 91 83 95 116 102 82 91 100 128 197 214 224 225 230 234 232 233 234 234 230 224 228 238 245 256 269 276 275 269 257 243 238 240 249 249 248 267 276 265 257 254 243 233 230 234 239 239 240
197 196 194 193 189 193 196 185 179 175 166 165 161 156 160 167 172 169 174 178 158 152 115 79 77 71 71 78 86 94 106 124 125 107 102 120 130 124 104 95 105 97 71 75 82 68 93 184 217 218 220 226 225 224 226 226 222 219 221 229 227 232 249 255 267 275 252 244 239 237 250 258 266 280 282 274 262 256 256 249 238 235 241 241 233
203 201 201 199 191 189 191 184 180 177 172 171 164 155 154 161 155 146 148 130 117 121 111 103 106 98 85 83 90 95 100 113 117 113 115 117 123 128 125 125 128 133 139 135 120 93 74 99 130 184 197 216 216 213 218 218 214 216 220 224 224 229 244 245 261 285 277 273 273 266 266 267 274 279 273 275 270 260 258 256 249 243 248 250 242
206 204 207 206 194 187 185 183 183 180 175 173 165 158 152 144 133 126 122 119 126 141 142 145 155 134 102 94 90 92 96 103 109 117 128 129 130 127 118 107 108 133 151 150 146 145 138 121 103 86 88 112 189 206 216 211 211 224 226 226 231 241 254 258 270 286 289 288 286 284 283 276 276 281 273 266 273 272 264 260 258 260 263 258 252
210 209 214 212 197 189 187 185 186 182 178 175 166 162 152 134 128 126 125 135 155 165 163 165 167 127 98 94 88 88 94 99 104 106 114 122 125 122 115 106 99 111 140 150 157 168 165 150 139 133 117 100 116 130 104 102 120 108 201 221 227 242 259 262 270 280 280 281 285 289 293 285 275 277 279 276 273 276 279 275 266 262 266 265 261
219 215 219 217 201 191 189 187 189 185 179 177 169 165 153 135 135 135 138 161 176 171 166 164 151 121 110 115 113 105 103 103 104 101 101 106 113 121 123 121 115 113 129 140 149 163 170 173 170 167 163 148 128 119 107 101 98 90 85 72 58 27 342 299 288 292 287 293 303 309 314 307 291 279 279 288 287 281 280 286 282 265 256 261 268
215 209 214 213 201 193 189 187 189 186 181 178 173 168 154 142 141 140 152 179 177 160 163 162 148 137 138 145 136 113 107 99 96 97 98 102 106 112 118 121 122 116 110 111 114 121 128 141 154 162 169 173 167 150 142 144 133 117 110 98 93 81 57 56 38 3 352 344 331 318 321 319 310 299 289 289 292 288 279 283 297 291 271 270 281
208 205 206 206 200 195 190 187 189 187 182 179 177 171 158 150 146 146 163 184 167 159 172 170 157 155 151 144 130 115 111 100 95 96 96 101 105 108 113 116 118 114 107 104 104 108 108 107 113 121 133 148 158 161 169 181 172 163 167 159 148 146 137 132 158 188 211 297 290 290 303 312 311 307 300 293 288 287 289 293 298 303 308 311 315
Height
1488 1489 1490 1491 1493 1494 1496 1496 1498 1499 1500 1502 1504 1505 1506 1508 1508 1510 1511 1512 1513 1514 1515 1516 1517 1518 1519 1520 1521 1521 1522 1523 1523 1524 1524 1525 1525 1526 1526 1527 1527 1528 1528 1529 1530 1531 1531 1531 1532 1533 1533 1534 1534 1534 1535 1535 1536 1536 1537 1537 1538 1539 1539 1540 1541 1541 1542 1542 1542 1542 1542 1542 1541 1541 1541 1542 1542 1542 1542 1542 1542 1541 1540 1540 1540
1485 1488 1489 1491 1493 1494 1496 1496 1498 1499 1501 1502 1504 1505 1506 1508 1509 1510 1511 1512 1513 1514 1516 1517 1518 1518 1519 1520 1521 1522 1523 1524 1524 1524 1525 1525 1526 1527 1527 1527 1528 1529 1529 1530 1531 1532 1533 1532 1533 1533 1534 1534 1535 1535 1535 1536 1536 1537 1538 1538 1539 1540 1541 1541 1542 1543 1543 1543 1543 1543 1543 1543 1542 1542 1542 1543 1543 1543 1543 1543 1543 1542 1541 1541 1541
1485 1487 1489 1491 1493 1494 1496 1496 1498 1499 1501 1502 1504 1506 1507 1508 1509 1511 1511 1513 1514 1515 1516 1517 1519 1519 1520 1521 1522 1523 1524 1524 1525 1525 1526 1526 1527 1527 1528 1528 1529 1529 1530 1531 1532 1532 1533 1534 1533 1533 1534 1535 1535 1536 1536 1537 1537 1538 1538 1539 1540 1541 1542 1543 1543 1543 1544 1544 1544 1544 1544 1544 1543 1543 1543 1544 1544 1544 1544 1544 1544 1543 1543 1542 1542
1485 1486 1489 1491 1493 1494 1495 1497 1498 1500 1501 1503 1504 1506 1507 1508 1509 1511 1512 1513 1514 1516 1517 1518 1519 1520 1521 1522 1523 1524 1524 1525 1526 1526 1527 1527 1528 1528 1529 1529 1530 1530 1531 1531 1532 1533 1534 1534 1534 1534 1534 1535 1536 1536 1537 1537 1538 1538 1539 1540 1541 1542 1543 1543 1544 1544 1544 1544 1544 1544 1544 1544 1544 1544 1544 1545 1545 1545 1546 1545 1544 1544 1544 1544 1544
1485 1486 1489 1491 1493 1494 1496 1497 1498 1500 1502 1503 1505 1506 1507 1509 1510 1511 1512 1513 1515 1516 1517 1519 1520 1521 1522 1523 1524 1524 1525 1526 1526 1527 1527 1528 1528 1529 1529 1530 1530 1531 1531 1532 1533 1533 1534 1535 1535 1534 1535 1535 1536 1537 1537 1538 1538 1539 1540 1541 1542 1543 1544 1544 1545 1545 1545 1545 1545 1544 1544 1544 1545 1545 1545 1546 1546 1546 1546 1546 1545 1545 1545 1545 1545
1485 1486 1489 1490 1493 1494 1496 1497 1499 1501 1502 1504 1505 1506 1507 1509 1510 1511 1512 1514 1515 1516 1518 1519 1520 1522 1523 1524 1524 1525 1526 1526 1526 1527 1528 1528 1529 1529 1530 1530 1531 1532 1532 1532 1533 1534 1534 1535 1535 1535 1535 1535 1536 1537 1537 1538 1538 1539 1540 1541 1543 1543 1544 1545 1546 1547 1547 1547 1547 1546 1545 1545 1546 1546 1546 1546 1547 1547 1547 1547 1547 1546 1546 1546 1546
1485 1487 1489 1491 1493 1495 1496 1498 1499 1501 1502 1504 1505 1507 1508 1509 1510 1511 1513 1514 1515 1517 1518 1520 1521 1522 1523 1524 1525 1525 1526 1527 1527 1527 1528 1529 1529 1530 1530 1531 1531 1532 1532 1533 1533 1534 1534 1535 1535 1536 1536 1536 1536 1537 1538 1538 1539 1539 1541 1542 1543 1544 1545 1546 1547 1548 1548 1549 1550 1549 1548 1546 1547 1547 1547 1547 1548 1548 1548 1548 1548 1547 1547 1547 1547
1486 1488 1490 1491 1493 1495 1497 1498 1499 1501 1503 1504 1506 1507 1508 1509 1511 1512 1513 1514 1516 1517 1519 1520 1521 1523 1524 1525 1525 1526 1527 1527 1528 1528 1529 1529 1530 1530 1531 1531 1532 1532 1533 1533 1533 1534 1535 1535 1536 1536 1536 1536 1536 1537 1538 1539 1539 1540 1541 1542 1544 1544 1546 1547 1548 1549 1550 1551 1551 1551 1550 1547 1547 1548 1547 1548 1548 1549 1549 1549 1549 1549 1548 1548 1548
1487 1488 1490 1492 1494 1496 1497 1499 1500 1501 1503 1505 1506 1507 1508 1510 1511 1512 1514 1515 1516 1517 1519 1520 1522 1523 1524 1525 1526 1526 1527 1528 1528 1528 1529 1530 1530 1531 1531 1532 1532 1533 1533 1533 1534 1534 1534 1535 1536 1536 1536 1536 1536 1537 1538 1539 1539 1540 1542 1543 1544 1545 1546 1547 1548 1550 1550 1551 1552 1552 1549 1547 1548 1548 1549 1549 1550 1550 1549 1550 1550 1549 1549 1549 1549
1488 1489 1491 1493 1494 1496 1497 1499 1500 1502 1503 1505 1506 1508 1509 1510 1511 1513 1514 1515 1517 1518 1519 1520 1522 1523 1524 1525 1526 1527 1527 1528 1529 1529 1530 1530 1531 1531 1531 1532 1532 1533 1533 1534 1534 1534 1535 1535 1536 1536 1536 1536 1537 1538 1538 1539 1539 1540 1542 1543 1545 1546 1547 1548 1549 1550 1551 1552 1554 1553 1549 1548 1549 1550 1551 1552 1551 1550 1550 1551 1551 1550 1550 1550 1550
1489 1490 1492 1493 1495 1496 1498 1500 1501 1502 1504 1506 1507 1508 1509 1511 1512 1513 1515 1516 1517 1519 1520 1521 1522 1523 1524 1525 1526 1527 1528 1528 1529 1530 1530 1531 1531 1531 1532 1532 1533 1533 1534 1534 1534 1535 1535 1535 1536 1537 1537 1537 1538 1538 1539 1539 1539 1540 1542 1544 1545 1546 1547 1548 1550 1550 1551 1553 1552 1552 1551 1550 1551 1552 1553 1553 1552 1551 1551 1551 1552 1551 1551 1551 1551
1490 1491 1492 1494 1496 1497 1499 1501 1502 1504 1505 1506 1507 1509 1510 1511 1513 1514 1515 1517 1518 1520 1521 1522 1523 1524 1525 1526 1527 1528 1528 1529 1530 1531 1531 1532 1532 1532 1532 1533 1533 1534 1534 1534 1534 1535 1535 1536 1536 1537 1537 1537 1537 1538 1539 1539 1539 1540 1542 1544 1545 1547 1548 1549 1550 1550 1552 1554 1551 1551 1552 1552 1553 1554 1554 1553 1553 1552 1552 1552 1552 1552 1552 1552 1552
1491 1492 1493 1495 1496 1498 1500 1501 1503 1504 1505 1507 1508 1509 1510 1511 1513 1514 1516 1517 1519 1520 1521 1522 1523 1524 1525 1526 1527 1528 1529 1530 1531 1532 1532 1532 1532 1532 1532 1533 1533 1534 1534 1534 1534 1535 1536 1536 1537 1537 1537 1537 1538 1538 1539 1539 1540 1540 1542 1544 1545 1547 1548 1549 1550 1550 1553 1554 1551 1551 1552 1553 1554 1554 1554 1554 1554 1553 1553 1553 1553 1552 1552 1553 1553
1492 1493 1495 1496 1497 1499 1501 1503 1504 1505 1506 1507 1508 1509 1511 1512 1513 1514 1516 1517 1519 1520 1522 1523 1523 1525 1526 1527 1528 1529 1529 1530 1531 1532 1533 1533 1533 1533 1533 1533 1534 1535 1535 1535 1535 1535 1536 1536 1537 1537 1537 1537 1538 1538 1538 1539 1540 1541 1542 1544 1545 1547 1548 1549 1549 1550 1553 1554 1550 1551 1552 1552 1553 1554 1554 1554 1554 1553 1553 1553 1553 1553 1553 1553 1553
1493 1494 1496 1497 1498 1500 1502 1503 1505 1506 1507 1507 1509 1510 1511 1512 1514 1515 1516 1518 1519 1520 1522 1523 1524 1525 1526 1528 1528 1529 1530 1531 1532 1533 1533 1533 1533 1534 1534 1534 1535 1535 1535 1535 1535 1535 1536 1537 1537 1537 1537 1538 1538 1538 1538 1539 1539 1541 1542 1544 1545 1547 1549 1549 1549 1550 1553 1554 1551 1551 1552 1552 1553 1554 1554 1554 1554 1554 1554 1554 1554 1554 1554 1554 1554
1493 1494 1496 1498 1499 1501 1502 1504 1506 1507 1508 1508 1509 1510 1512 1513 1514 1516 1517 1518 1520 1521 1522 1524 1525 1526 1527 1528 1529 1529 1530 1531 1532 1533 1534 1534 1534 1534 1534 1535 1535 1536 1536 1536 1536 1536 1537 1537 1537 1537 1537 1538 1538 1538 1538 1539 1539 1541 1542 1544 1546 1548 1549 1549 1550 1551 1553 1554 1552 1551 1552 1552 1553 1554 1554 1554 1553 1554 1554 1554 1555 1554 1554 1554 1554
1494 1496 1497 1498 1500 1502 1503 1505 1506 1508 1508 1509 1510 1511 1512 1513 1515 1516 1518 1519 1520 1522 1523 1524 1525 1527 1528 1529 1529 1530 1531 1532 1532 1533 1534 1535 1535 1535 1535 1536 1536 1536 1536 1536 1537 1537 1538 1538 1538 1538 1538 1538 1538 1538 1539 1539 1539 1541 1542 1544 1546 1548 1549 1550 1551 1551 1553 1554 1551 1550 1552 1552 1553 1554 1554 1554 1553 1554 1554 1554 1555 1555 1555 1555 1555
1495 1497 1498 1499 1501 1503 1504 1505 1507 1508 1509 1509 1511 1511 1513 1514 1515 1517 1518 1520 1521 1522 1523 1525 1526 1527 1528 1529 1530 1530 1531 1532 1533 1534 1534 1535 1535 1535 1536 1536 1536 1537 1537 1537 1537 1537 1538 1538 1538 1538 1538 1538 1539 1538 1539 1539 1540 1541 1542 1544 1546 1548 1549 1550 1551 1551 1553 1553 1550 1551 1552 1552 1553 1554 1554 1554 1553 1554 1554 1554 1555 1555 1555 1555 1555
1496 1497 1497 1498 1500 1503 1504 1506 1507 1508 1509 1510 1511 1512 1513 1514 1516 1517 1518 1520 1521 1523 1524 1525 1526 1527 1528 1529 1530 1531 1532 1533 1534 1534 1535 1535 1536 1536 1536 1536 1537 1537 1537 1537 1537 1538 1538 1539 1539 1538 1539 1539 1539 1539 1539 1540 1540 1541 1543 1544 1546 1548 1549 1550 1551 1552 1553 1551 1551 1551 1552 1552 1553 1554 1554 1554 1553 1554 1554 1554 1555 1555 1556 1555 1556
1496 1497 1497 1498 1499 1502 1504 1506 1508 1509 1510 1510 1511 1512 1513 1515 1516 1517 1518 1520 1521 1522 1523 1525 1526 1527 1528 1529 1530 1531 1532 1533 1534 1535 1535 1535 1536 1536 1536 1536 1537 1537 1538 1538 1538 1538 1538 1539 1539 1539 1539 1539 1539 1540 1540 1540 1541 1542 1543 1545 1546 1547 1549 1550 1551 1553 1552 1551 1552 1552 1552 1552 1553 1553 1554 1554 1553 1554 1554 1554 1555 1556 1556 1556 1556
1496 1497 1498 1499 1500 1502 1504 1506 1508 1509 1510 1510 1511 1511 1513 1515 1516 1517 1518 1520 1521 1522 1523 1525 1526 1527 1528 1529 1530 1531 1532 1533 1534 1534 1535 1535 1535 1536 1536 1536 1537 1537 1537 1538 1538 1538 1539 1539 1539 1540 1540 1540 1540 1540 1540 1541 1541 1542 1543 1544 1546 1547 1548 1550 1551 1553 1551 1551 1552 1553 1553 1553 1553 1553 1554 1554 1554 1554 1554 1555 1555 1556 1556 1556 1557
1497 1498 1499 1500 1501 1503 1505 1507 1508 1509 1510 1511 1512 1512 1514 1514 1515 1517 1518 1520 1522 1523 1524 1526 1526 1527 1528 1529 1530 1530 1531 1532 1533 1534 1534 1535 1535 1536 1536 1537 1537 1537 1537 1538 1538 1538 1539 1539 1540 1540 1540 1541 1541 1541 1541 1542 1542 1543 1543 1544 1546 1547 1548 1550 1551 1552 1551 1551 1552 1552 1553 1553 1553 1553 1553 1554 1554 1554 1555 1555 1556 1556 1557 1557 1557
1497 1499 1501 1503 1504 1505 1506 1507 1508 1509 1510 1511 1512 1513 1514 1514 1515 1516 1518 1520 1522 1523 1524 1525 1526 1527 1528 1529 1529 1530 1530 1531 1532 1533 1534 1535 1535 1536 1536 1536 1536 1536 1537 1537 1538 1538 1538 1539 1540 1540 1541 1541 1541 1542 1542 1542 1543 1544 1544 1545 1545 1546 1548 1550 1551 1552 1551 1551 1552 1552 1553 1553 1553 1553 1553 1553 1554 1554 1555 1555 1556 1556 1557 1557 1558
1497 1499 1501 1504 1506 1507 1507 1508 1509 1509 1510 1511 1512 1513 1513 1514 1515 1516 1518 1520 1522 1523 1524 1525 1526 1527 1528 1528 1529 1530 1530 1530 1532 1533 1534 1535 1535 1535 1535 1535 1535 1536 1536 1537 1537 1537 1538 1538 1539 1540 1541 1541 1542 1542 1542 1543 1544 1545 1545 1546 1546 1547 1548 1550 1551 1551 1550 1551 1552 1552 1552 1552 1552 1553 1553 1553 1553 1554 1555 1555 1556 1557 1557 1558 1558
1496 1498 1500 1502 1505 1506 1506 1508 1509 1509 1510 1511 1512 1513 1513 1514 1515 1515 1517 1520 1522 1523 1524 1525 1526 1527 1527 1528 1529 1530 1530 1530 1531 1532 1533 1533 1534 1534 1535 1535 1535 1535 1536 1536 1537 1537 1537 1538 1539 1539 1540 1541 1542 1542 1543 1544 1545 1545 1545 1546 1547 1547 1548 1549 1551 1550 1550 1551 1551 1552 1552 1552 1552 1552 1553 1553 1554 1554 1554 1555 1556 1556 1557 1558 1558
1497 1498 1499 1501 1504 1506 1507 1507 1508 1509 1510 1512 1513 1513 1514 1515 1515 1516 1517 1519 1521 1523 1523 1524 1525 1526 1527 1527 1528 1528 1529 1530 1531 1532 1533 1533 1534 1534 1534 1535 1535 1535 1536 1536 1537 1538 1537 1538 1539 1539 1540 1541 1542 1543 1544 1544 1545 1545 1546 1547 1548 1548 1548 1549 1550 1550 1549 1551 1551 1551 1552 1552 1552 1552 1553 1554 1554 1554 1554 1555 1556 1556 1557 1557 1558
1496 1497 1499 1499 1501 1504 1507 1507 1508 1509 1510 1512 1513 1513 1514 1515 1516 1516 1516 1518 1521 1522 1523 1523 1524 1525 1525 1525 1526 1527 1529 1530 1531 1532 1533 1533 1534 1534 1534 1535 1535 1535 1536 1536 1537 1538 1538 1538 1539 1539 1540 1541 1542 1543 1544 1545 1545 1546 1546 1547 1548 1548 1548 1549 1550 1550 1549 1550 1551 1551 1551 1552 1552 1553 1553 1554 1554 1554 1555 1555 1556 1556 1557 1557 1558
1495 1496 1498 1499 1500 1502 1504 1505 1506 1509 1510 1512 1514 1514 1515 1516 1516 1516 1516 1517 1519 1520 1522 1523 1523 1524 1524 1525 1526 1527 1529 1530 1531 1532 1532 1532 1533 1533 1534 1535 1535 1535 1536 1536 1537 1537 1538 1539 1539 1540 1540 1541 1542 1543 1543 1545 1545 1546 1546 1547 1548 1548 1548 1549 1550 1550 1549 1550 1551 1551 1551 1552 1553 1553 1554 1554 1554 1555 1555 1555 1556 1556 1556 1557 1558
1494 1496 1498 1499 1501 1503 1505 1504 1505 1507 1508 1510 1512 1513 1515 1516 1516 1516 1517 1518 1519 1520 1521 1522 1523 1523 1525 1525 1526 1527 1528 1529 1530 1531 1532 1532 1533 1534 1535 1535 1535 1536 1536 1536 1536 1536 1538 1539 1540 1540 1541 1542 1542 1543 1544 1544 1545 1545 1546 1547 1548 1548 1548 1549 1549 1550 1549 1550 1551 1551 1552 1552 1552 1553 1554 1554 1555 1555 1555 1556 1556 1556 1556 1557 1557
1496 1497 1498 1500 1502 1504 1505 1505 1506 1508 1508 1509 1510 1511 1513 1515 1516 1516 1516 1517 1519 1520 1521 1522 1522 1523 1524 1525 1526 1526 1527 1529 1529 1530 1531 1532 1533 1534 1534 1534 1535 1535 1536 1536 1536 1536 1537 1538 1538 1540 1541 1542 1543 1543 1543 1544 1545 1545 1545 1546 1547 1548 1549 1549 1549 1550 1550 1549 1550 1551 1552 1552 1553 1553 1554 1554 1555 1555 1556 1556 1556 1556 1556 1557 1557
1496 1498 1499 1500 1502 1503 1504 1505 1507 1509 1510 1511 1511 1512 1513 1514 1514 1515 1516 1516 1518 1519 1520 1520 1521 1522 1522 1523 1524 1526 1528 1529 1530 1530 1531 1531 1532 1533 1533 1533 1533 1534 1534 1535 1535 1536 1537 1537 1537 1539 1541 1542 1543 1544 1544 1544 1545 1545 1545 1545 1546 1548 1548 1549 1549 1550 1551 1550 1550 1551 1552 1552 1553 1553 1554 1554 1554 1555 1556 1556 1557 1557 1557 1557 1557
1497 1498 1499 1501 1502 1503 1504 1504 1506 1508 1509 1511 1511 1512 1513 1514 1514 1514 1515 1515 1517 1519 1520 1519 1519 1521 1521 1522 1523 1526 1527 1528 1529 1530 1531 1531 1531 1533 1533 1533 1533 1533 1534 1534 1534 1535 1536 1537 1537 1538 1540 1542 1543 1543 1543 1543 1544 1545 1545 1545 1546 1547 1548 1548 1549 1550 1551 1551 1550 1551 1552 1552 1553 1553 1554 1554 1554 1555 1555 1556 1557 1557 1557 1557 1557
1499 1500 1501 1502 1503 1503 1503 1504 1505 1507 1508 1508 1510 1511 1512 1513 1514 1515 1514 1513 1514 1517 1519 1519 1519 1520 1520 1521 1522 1524 1526 1527 1528 1529 1530 1530 1531 1532 1532 1532 1533 1533 1534 1534 1534 1535 1536 1537 1538 1539 1540 1541 1542 1542 1542 1543 1543 1544 1544 1545 1545 1546 1547 1548 1549 1549 1551 1551 1551 1551 1552 1552 1552 1553 1553 1554 1554 1554 1555 1556 1556 1557 1557 1557 1557
1501 1501 1502 1503 1503 1502 1503 1504 1505 1506 1506 1507 1508 1509 1510 1512 1514 1514 1514 1514 1514 1515 1516 1517 1518 1518 1519 1520 1521 1523 1525 1526 1528 1528 1529 1529 1529 1531 1531 1532 1532 1533 1533 1533 1534 1535 1536 1537 1538 1539 1540 1541 1541 1541 1542 1542 1542 1543 1543 1544 1544 1544 1545 1547 1548 1549 1550 1551 1551 1551 1551 1552 1552 1552 1553 1553 1554 1554 1554 1555 1556 1556 1557 1557 1557
1501 1501 1502 1503 1502 1502 1503 1503 1504 1504 1505 1506 1506 1507 1508 1510 1512 1512 1513 1514 1515 1515 1515 1515 1516 1517 1518 1519 1520 1521 1524 1526 1527 1528 1528 1528 1528 1529 1530 1531 1532 1532 1533 1533 1534 1535 1535 1536 1537 1539 1540 1540 1541 1541 1541 1541 1542 1542 1543 1543 1543 1543 1544 1545 1546 1548 1549 1550 1551 1551 1551 1551 1551 1552 1552 1553 1553 1553 1554 1555 1555 1556 1556 1557 1557
1501 1501 1501 1501 1501 1502 1503 1503 1503 1504 1504 1505 1505 1506 1507 1509 1510 1511 1512 1513 1515 1515 1515 1515 1516 1516 1517 1519 1520 1521 1523 1524 1525 1527 1527 1527 1528 1529 1529 1530 1531 1532 1532 1532 1533 1533 1534 1535 1536 1537 1538 1539 1540 1541 1541 1541 1542 1542 1543 1543 1543 1543 1544 1544 1545 1546 1547 1549 1550 1551 1551 1551 1551 1551 1551 1552 1552 1553 1553 1554 1555 1555 1556 1556 1556
1500 1500 1500 1500 1501 1502 1502 1503 1503 1503 1504 1505 1505 1506 1507 1508 1509 1511 1512 1513 1514 1515 1516 1515 1515 1517 1518 1519 1520 1521 1523 1523 1524 1525 1525 1526 1527 1528 1528 1529 1530 1531 1531 1531 1531 1532 1532 1533 1534 1536 1537 1538 1539 1540 1540 1541 1541 1542 1543 1543 1543 1543 1543 1544 1544 1545 1545 1546 1548 1549 1550 1551 1551 1551 1551 1551 1551 1552 1553 1553 1554 1555 1555 1555 1556
1500 1499 1499 1499 1500 1501 1502 1502 1503 1503 1504 1505 1505 1506 1507 1508 1509 1510 1512 1513 1514 1515 1516 1515 1515 1517 1518 1518 1519 1520 1521 1522 1523 1524 1524 1525 1526 1526 1527 1527 1528 1529 1530 1530 1530 1530 1530 1531 1533 1534 1535 1537 1538 1539 1539 1540 1541 1542 1542 1543 1543 1543 1543 1543 1544 1544 1544 1545 1546 1547 1548 1550 1551 1552 1551 1551 1550 1551 1552 1552 1553 1554 1554 1555 1555
1499 1498 1498 1499 1500 1501 1502 1502 1503 1503 1504 1505 1506 1506 1507 1509 1509 1510 1511 1513 1514 1515 1516 1515 1516 1517 1518 1518 1519 1520 1521 1521 1522 1523 1523 1525 1525 1525 1526 1526 1526 1527 1528 1527 1527 1528 1529 1530 1531 1533 1534 1535 1536 1537 1538 1539 1540 1541 1542 1542 1542 1542 1543 1543 1543 1543 1543 1543 1544 1544 1545 1547 1549 1550 1551 1551 1551 1550 1551 1551 1552 1552 1553 1554 1554
1498 1497 1497 1499 1500 1501 1502 1502 1503 1503 1504 1505 1506 1507 1508 1509 1510 1510 1512 1513 1513 1514 1515 1515 1516 1517 1517 1518 1519 1519 1520 1521 1521 1522 1522 1524 1524 1524 1524 1525 1525 1525 1526 1526 1526 1526 1528 1529 1531 1532 1533 1534 1536 1537 1538 1539 1539 1540 1541 1541 1541 1541 1541 1541 1541 1541 1541 1542 1542 1543 1544 1545 1546 1548 1549 1550 1551 1551 1550 1550 1551 1551 1552 1553 1554
1496 1496 1497 1499 1500 1501 1502 1502 1503 1503 1504 1505 1506 1507 1508 1509 1510 1511 1511 1512 1513 1514 1514 1515 1516 1516 1517 1518 1518 1519 1519 1520 1521 1521 1521 1522 1522 1522 1523 1523 1524 1524 1524 1524 1524 1525 1527 1528 1529 1531 1533 1534 1535 1536 1537 1538 1538 1538 1540 1541 1541 1540 1540 1540 1540 1540 1540 1540 1541 1542 1543 1544 1545 1546 1546 1547 1549 1550 1550 1550 1550 1551 1551 1552 1553
1495 1496 1498 1499 1500 1501 1501 1502 1502 1503 1504 1505 1506 1508 1509 1510 1510 1511 1512 1512 1513 1513 1513 1514 1515 1516 1517 1517 1518 1519 1519 1519 1520 1520 1521 1521 1521 1521 1521 1522 1523 1524 1524 1523 1524 1524 1526 1527 1528 1530 1532 1533 1534 1535 1536 1537 1537 1537 1539 1540 1540 1540 1539 1539 1538 1538 1538 1539 1539 1540 1542 1543 1544 1545 1545 1546 1547 1548 1549 1549 1549 1550 1550 1550 1551
1495 1497 1499 1500 1500 1500 1500 1501 1502 1502 1503 1504 1506 1507 1508 1509 1510 1511 1511 1512 1513 1513 1513 1514 1515 1516 1516 1517 1517 1518 1519 1519 1520 1520 1521 1521 1521 1521 1521 1522 1523 1523 1524 1524 1524 1525 1525 1526 1527 1529 1531 1532 1534 1535 1535 1536 1536 1537 1538 1539 1539 1539 1539 1538 1537 1537 1537 1537 1538 1539 1541 1542 1543 1544 1544 1545 1546 1546 1547 1547 1547 1548 1548 1549 1550
1493 1496 1498 1499 1499 1499 1498 1499 1500 1501 1502 1504 1505 1506 1507 1508 1509 1509 1510 1511 1513 1513 1514 1515 1515 1516 1516 1517 1517 1518 1519 1519 1520 1520 1520 1521 1521 1522 1522 1522 1523 1524 1525 1525 1525 1525 1525 1526 1527 1528 1530 1532 1533 1534 1534 1535 1536 1537 1538 1539 1539 1539 1539 1538 1537 1536 1536 1537 1537 1538 1540 1541 1541 1543 1544 1544 1545 1545 1545 1546 1546 1546 1546 1547 1548
1491 1494 1496 1498 1497 1497 1497 1497 1498 1500 1501 1502 1504 1505 1506 1507 1508 1509 1510 1511 1512 1513 1514 1516 1516 1517 1517 1517 1517 1518 1518 1519 1520 1520 1520 1521 1521 1522 1523 1523 1524 1524 1525 1525 1526 1526 1526 1526 1527 1528 1529 1531 1532 1533 1534 1534 1536 1537 1538 1539 1539 1539 1539 1538 1537 1537 1537 1537 1537 1538 1539 1539 1540 1541 1543 1543 1543 1543 1544 1544 1544 1545 1545 1545 1546
1489 1492 1495 1496 1495 1495 1494 1495 1496 1498 1499 1501 1502 1504 1505 1506 1507 1508 1510 1511 1512 1514 1515 1516 1517 1517 1517 1518 1518 1518 1519 1519 1520 1520 1520 1521 1521 1522 1522 1523 1523 1524 1525 1525 1526 1527 1527 1527 1528 1528 1529 1530 1531 1532 1533 1534 1535 1537 1538 1538 1538 1538 1538 1538 1538 1537 1537 1538 1538 1538 1538 1538 1539 1540 1541 1542 1542 1542 1543 1542 1543 1543 1544 1544 1545
1488 1491 1494 1494 1493 1492 1492 1492 1494 1495 1498 1499 1501 1503 1504 1505 1506 1507 1509 1511 1512 1514 1515 1516 1517 1517 1518 1518 1518 1519 1519 1520 1520 1520 1520 1520 1521 1521 1522 1523 1524 1524 1525 1525 1526 1527 1527 1527 1528 1529 1529 1530 1531 1531 1532 1533 1534 1535 1536 1537 1537 1538 1538 1538 1538 1538 1538 1538 1538 1538 1538 1538 1538 1539 1540 1540 1541 1541 1541 1541 1541 1542 1542 1543 1543
1485 1489 1493 1493 1491 1490 1489 1490 1491 1493 1496 1498 1499 1501 1502 1503 1505 1507 1509 1511 1513 1514 1515 1516 1517 1518 1518 1519 1519 1519 1520 1520 1521 1521 1521 1521 1521 1522 1523 1523 1524 1524 1524 1525 1525 1526 1527 1527 1528 1528 1529 1530 1530 1531 1532 1533 1533 1534 1535 1536 1537 1537 1537 1537 1537 1538 1538 1538 1538 1538 1537 1537 1538 1538 1539 1539 1539 1540 1540 1540 1540 1541 1541 1542 1542
1481 1486 1492 1493 1490 1488 1487 1487 1489 1491 1494 1496 1498 1500 1501 1502 1504 1506 1509 1511 1513 1514 1515 1516 1517 1518 1518 1519 1520 1520 1520 1521 1521 1521 1522 1522 1522 1522 1523 1523 1524 1524 1524 1524 1525 1526 1526 1527 1528 1528 1529 1529 1530 1530 1531 1532 1533 1533 1534 1535 1536 1536 1537 1537 1537 1537 1538 1538 1538 1537 1537 1537 1537 1537 1538 1538 1538 1538 1539 1539 1539 1539 1540 1540 1541
1479 1482 1488 1491 1490 1486 1484 1485 1486 1489 1492 1494 1496 1498 1500 1501 1503 1506 1508 1510 1512 1514 1515 1516 1517 1518 1519 1520 1520 1521 1521 1521 1522 1522 1523 1523 1523 1523 1524 1524 1524 1525 1525 1525 1525 1526 1526 1527 1527 1528 1529 1529 1530 1530 1531 1532 1532 1533 1534 1534 1535 1535 1536 1536 1537 1537 1538 1538 1537 1537 1537 1537 1536 1536 1537 1537 1537 1537 1537 1538 1538 1538 1538 1539 1539
1477 1479 1482 1486 1489 1485 1482 1482 1483 1486 1489 1492 1494 1497 1499 1500 1502 1505 1507 1509 1511 1513 1514 1516 1517 1518 1519 1520 1521 1521 1522 1522 1523 1523 1524 1524 1524 1524 1525 1525 1525 1525 1526 1526 1526 1526 1527 1527 1527 1528 1528 1529 1529 1530 1531 1531 1532 1532 1533 1534 1534 1535 1535 1535 1536 1537 1537 1537 1537 1536 1536 1536 1536 1536 1535 1535 1535 1535 1536 1536 1537 1537 1537 1537 1538